TimeEST,TemperatureF,Dew PointF,Humidity,Sea Level PressureIn,VisibilityMPH,Wind Direction,Wind SpeedMPH,Gust SpeedMPH,PrecipitationIn,Events,Conditions,WindDirDegrees,DateUTC
12:54 AM,30.0,19.9,66,29.88,10.0,WNW,18.4,28.8,N/A,,Overcast,290,2013-01-05 05:54:00
1:31 AM,28.4,21.2,74,29.87,2.0,WNW,27.6,40.3,0.00,Snow,Light Snow,300,2013-01-05 06:31:00
1:39 AM,28.4,21.2,74,29.87,3.0,WNW,26.5,43.7,0.00,Snow,Light Snow,290,2013-01-05 06:39:00
1:54 AM,30.0,19.9,66,29.90,9.0,WNW,23.0,39.1,0.00,,Overcast,290,2013-01-05 06:54:00
2:35 AM,30.2,21.2,69,29.88,10.0,WNW,17.3,29.9,N/A,,Overcast,290,2013-01-05 07:35:00
2:54 AM,30.0,21.0,69,29.91,10.0,West,15.0,24.2,N/A,,Overcast,280,2013-01-05 07:54:00
3:54 AM,30.9,21.0,67,29.93,10.0,West,15.0,29.9,N/A,,Overcast,280,2013-01-05 08:54:00
4:15 AM,30.2,21.2,69,29.91,10.0,West,16.1,-,N/A,,Overcast,280,2013-01-05 09:15:00
4:54 AM,30.9,21.0,67,29.96,10.0,West,13.8,21.9,N/A,,Overcast,280,2013-01-05 09:54:00
5:33 AM,30.2,21.2,69,29.95,10.0,WNW,18.4,28.8,N/A,,Overcast,300,2013-01-05 10:33:00
5:45 AM,30.2,21.2,69,29.95,10.0,WNW,13.8,25.3,N/A,,Overcast,300,2013-01-05 10:45:00
5:54 AM,30.9,21.9,69,29.99,10.0,West,18.4,26.5,N/A,,Overcast,280,2013-01-05 10:54:00
6:08 AM,30.2,21.2,69,29.97,10.0,WNW,16.1,28.8,N/A,,Overcast,290,2013-01-05 11:08:00
6:54 AM,30.9,21.9,69,30.03,10.0,WNW,19.6,27.6,N/A,,Overcast,290,2013-01-05 11:54:00
7:54 AM,30.9,23.0,72,30.06,10.0,WNW,21.9,31.1,N/A,,Overcast,290,2013-01-05 12:54:00
8:54 AM,30.9,21.9,69,30.11,10.0,WNW,18.4,29.9,N/A,,Overcast,300,2013-01-05 13:54:00
9:43 AM,30.2,21.2,69,30.10,10.0,WNW,20.7,29.9,N/A,,Overcast,290,2013-01-05 14:43:00
9:54 AM,30.9,21.9,69,30.14,10.0,WNW,17.3,26.5,N/A,,Mostly Cloudy,290,2013-01-05 14:54:00
10:12 AM,32.0,21.2,64,30.12,10.0,WNW,12.7,19.6,N/A,,Mostly Cloudy,300,2013-01-05 15:12:00
10:54 AM,32.0,19.0,59,30.17,10.0,WNW,17.3,35.7,N/A,,Mostly Cloudy,300,2013-01-05 15:54:00
11:54 AM,30.9,19.9,64,30.20,10.0,West,13.8,24.2,N/A,,Mostly Cloudy,280,2013-01-05 16:54:00
12:54 PM,33.1,18.0,54,30.19,10.0,WNW,19.6,28.8,N/A,,Overcast,300,2013-01-05 17:54:00
1:54 PM,32.0,15.1,50,30.17,10.0,NW,10.4,20.7,N/A,,Clear,320,2013-01-05 18:54:00
2:54 PM,30.9,16.0,54,30.17,10.0,WNW,11.5,-,N/A,,Clear,300,2013-01-05 19:54:00
3:54 PM,30.0,16.0,56,30.19,10.0,WNW,17.3,-,N/A,,Clear,290,2013-01-05 20:54:00
4:54 PM,28.0,15.1,58,30.19,10.0,WNW,8.1,-,N/A,,Clear,290,2013-01-05 21:54:00
6:54 PM,24.1,15.1,69,30.23,10.0,West,3.5,-,N/A,,Clear,280,2013-01-05 23:54:00
7:54 PM,24.1,15.1,69,30.23,10.0,SSE,3.5,-,N/A,,Clear,150,2013-01-06 00:54:00
8:54 PM,21.9,14.0,72,30.19,10.0,West,3.5,-,N/A,,Clear,270,2013-01-06 01:54:00
9:54 PM,19.0,14.0,81,30.20,10.0,Calm,Calm,-,N/A,,Clear,0,2013-01-06 02:54:00
10:54 PM,19.9,14.0,78,30.18,10.0,Calm,Calm,-,N/A,,Clear,0,2013-01-06 03:54:00
11:54 PM,19.9,15.1,81,30.15,10.0,Calm,Calm,-,N/A,,Clear,0,2013-01-06 04:54:00